GW0378 Weather Reports


Display with metric or nautical units.
time (UTC)temp
F
wind
direction
speed
MPH
gust
MPH
rain 1hr
in
rain 24hr
in
rain mn
in
humidity
%
barometer
mb
20260505001656 64 93 3.0 11.0 0.00 0.00 0.00 39 1011.6
20260505001153 65 59 2.0 9.0 0.00 0.00 0.00 38 1011.7
20260505000650 65 56 2.0 9.0 0.00 0.00 0.00 38 1011.6
20260505000148 66 60 6.0 14.0 0.00 0.00 0.00 38 1011.6
20260504235644 66 29 4.0 9.0 0.00 0.00 0.00 36 1011.6
20260504235141 66 357 2.0 14.0 0.00 0.00 0.00 37 1011.5
20260504234638 66 26 1.0 5.0 0.00 0.00 0.00 38 1011.3
20260504234136 65 52 5.0 10.0 0.00 0.00 0.00 37 1011.4
20260504233631 66 80 2.0 7.0 0.00 0.00 0.00 39 1011.4
20260504233127 65 67 5.0 9.0 0.00 0.00 0.00 38 1011.4
20260504232625 65 81 4.0 10.0 0.00 0.00 0.00 39 1011.6
20260504232122 65 64 5.0 8.0 0.00 0.00 0.00 38 1011.5
20260504231618 65 51 8.0 11.0 0.00 0.00 0.00 37 1011.4
20260504231115 66 45 2.0 9.0 0.00 0.00 0.00 38 1011.5
20260504230611 66 10 3.0 7.0 0.00 0.00 0.00 38 1011.3
20260504230110 66 80 10.0 12.0 0.00 0.00 0.00 37 1011.3
20260504225608 67 41 5.0 12.0 0.00 0.00 0.00 37 1011.4
20260504225104 66 0 2.0 8.0 0.00 0.00 0.00 37 1011.4
20260504224600 66 96 6.0 10.0 0.00 0.00 0.00 36 1011.4
20260504224058 67 8 4.0 12.0 0.00 0.00 0.00 38 1011.4
20260504223555 67 50 7.0 9.0 0.00 0.00 0.00 37 1011.6
20260504223050 66 84 3.0 14.0 0.00 0.00 0.00 37 1011.5
20260504222547 66 102 8.0 9.0 0.00 0.00 0.00 36 1011.5
20260504222044 66 85 4.0 17.0 0.00 0.00 0.00 37 1011.7
20260504221542 67 21 4.0 12.0 0.00 0.00 0.00 37 1011.5
20260504221038 67 109 3.0 10.0 0.00 0.00 0.00 36 1011.5
20260504220535 67 108 7.0 10.0 0.00 0.00 0.00 36 1011.6
20260504220032 67 123 8.0 11.0 0.00 0.00 0.00 36 1011.4
20260504215528 68 346 3.0 8.0 0.00 0.00 0.00 36 1011.4
20260504215026 66 23 5.0 7.0 0.00 0.00 0.00 37 1011.6
20260504214522 67 67 5.0 8.0 0.00 0.00 0.00 36 1011.7
20260504214018 67 35 3.0 10.0 0.00 0.00 0.00 38 1011.8
20260504213515 68 84 3.0 7.0 0.00 0.00 0.00 37 1011.7
20260504213012 67 97 8.0 12.0 0.00 0.00 0.00 36 1011.8
20260504212508 67 60 3.0 13.0 0.00 0.00 0.00 38 1011.6
20260504212005 67 90 2.0 13.0 0.00 0.00 0.00 38 1011.8
20260504211502 66 61 3.0 15.0 0.00 0.00 0.00 38 1011.8
20260504210959 67 43 4.0 8.0 0.00 0.00 0.00 38 1011.8
20260504210456 68 12 2.0 7.0 0.00 0.00 0.00 38 1011.8
20260504205953 68 92 6.0 10.0 0.00 0.00 0.00 35 1011.9
20260504205450 68 64 5.0 5.0 0.00 0.00 0.00 37 1011.8
20260504204949 67 62 11.0 11.0 0.00 0.00 0.00 36 1011.8
20260504204446 66 45 8.0 10.0 0.00 0.00 0.00 38 1011.7
20260504203945 65 76 5.0 22.0 0.00 0.00 0.00 38 1012.3
20260504203443 66 63 4.0 7.0 0.00 0.00 0.00 39 1011.9
20260504202938 66 35 1.0 7.0 0.00 0.00 0.00 38 1012.0
20260504202435 66 70 3.0 10.0 0.00 0.00 0.00 38 1012.3
20260504201932 67 53 4.0 5.0 0.00 0.00 0.00 39 1012.1
20260504201429 67 120 6.0 8.0 0.00 0.00 0.00 38 1012.3
20260504200927 66 123 4.0 15.0 0.00 0.00 0.00 38 1012.1
20260504200423 66 60 5.0 6.0 0.00 0.00 0.00 40 1012.1
20260504195920 64 14 3.0 10.0 0.00 0.00 0.00 38 1012.0
20260504195416 66 52 3.0 7.0 0.00 0.00 0.00 39 1012.1
20260504194913 66 20 1.0 8.0 0.00 0.00 0.00 37 1012.4
20260504194409 66 28 4.0 10.0 0.00 0.00 0.00 38 1012.1
20260504193905 65 98 7.0 16.0 0.00 0.00 0.00 38 1012.1
20260504193402 66 99 4.0 15.0 0.00 0.00 0.00 39 1012.4
20260504192901 65 342 2.0 12.0 0.00 0.00 0.00 40 1012.4
20260504192358 65 37 0.0 8.0 0.00 0.00 0.00 39 1012.1
20260504191856 65 4 4.0 10.0 0.00 0.00 0.00 40 1012.6
20260504191354 65 106 2.0 6.0 0.00 0.00 0.00 42 1012.7
20260504190849 64 82 3.0 9.0 0.00 0.00 0.00 40 1012.5
20260504190345 64 41 9.0 9.0 0.00 0.00 0.00 41 1012.6
20260504185842 65 42 6.0 7.0 0.00 0.00 0.00 39 1012.9
20260504185339 64 109 3.0 11.0 0.00 0.00 0.00 40 1013.0
20260504184835 63 10 3.0 11.0 0.00 0.00 0.00 40 1012.8
20260504184331 63 157 6.0 15.0 0.00 0.00 0.00 40 1012.7
20260504183827 64 82 3.0 13.0 0.00 0.00 0.00 39 1013.1
20260504183325 64 75 3.0 10.0 0.00 0.00 0.00 40 1012.9
20260504182822 63 115 10.0 10.0 0.00 0.00 0.00 39 1013.0
20260504182319 63 87 3.0 16.0 0.00 0.00 0.00 40 1012.9
20260504181816 64 69 9.0 18.0 0.00 0.00 0.00 40 1013.1
20260504181314 62 41 4.0 13.0 0.00 0.00 0.00 40 1013.0
20260504180813 63 62 5.0 10.0 0.00 0.00 0.00 40 1013.0
20260504180311 63 104 10.0 22.0 0.00 0.00 0.00 39 1013.1
20260504175808 62 100 9.0 14.0 0.00 0.00 0.00 41 1013.1
20260504175305 62 53 6.0 22.0 0.00 0.00 0.00 40 1013.1
20260504174803 64 82 5.0 10.0 0.00 0.00 0.00 40 1013.0
20260504174300 62 108 7.0 10.0 0.00 0.00 0.00 41 1013.2
20260504173757 62 82 7.0 16.0 0.00 0.00 0.00 41 1013.2
20260504173254 62 104 5.0 17.0 0.00 0.00 0.00 40 1013.5
20260504172750 61 56 3.0 14.0 0.00 0.00 0.00 41 1013.4
20260504172247 61 62 6.0 15.0 0.00 0.00 0.00 39 1013.4
20260504171743 61 14 7.0 14.0 0.00 0.00 0.00 42 1013.5
20260504171241 60 78 5.0 15.0 0.00 0.00 0.00 41 1013.4
20260504170738 60 84 6.0 14.0 0.00 0.00 0.00 40 1013.7
20260504170235 60 110 6.0 10.0 0.00 0.00 0.00 41 1013.4
20260504160153 57 90 9.0 33.0 0.00 0.00 0.00 43 1013.8
20260504151121 55 111 10.0 18.0 0.00 0.00 0.00 43 1013.9
20260504150618 56 79 16.0 24.0 0.00 0.00 0.00 43 1014.0
20260504150115 55 60 5.0 24.0 0.00 0.00 0.00 43 1013.7
20260504141044 54 136 11.0 25.0 0.00 0.00 0.00 44 1013.4
20260504140540 54 115 13.0 23.0 0.00 0.00 0.00 44 1013.2
20260504130505 53 105 1.0 21.0 0.00 0.00 0.00 46 1012.7
20260504110352 55 113 16.0 23.0 0.00 0.00 0.00 49 1011.8
20260504100309 48 102 5.0 5.0 0.00 0.00 0.00 67 1010.9
20260504081703 51 113 2.0 3.0 0.00 0.00 0.00 64 1010.9
20260504081159 51 145 0.0 2.0 0.00 0.00 0.00 63 1011.1
20260504080655 52 23 0.0 2.0 0.00 0.00 0.00 62 1011.1
20260504080152 52 23 0.0 3.0 0.00 0.00 0.00 62 1010.9
20260504070120 49 106 4.0 5.0 0.00 0.00 0.00 67 1010.8
20260504050508 57 106 5.0 8.0 0.00 0.00 0.00 52 1010.7
20260504050005 58 107 4.0 5.0 0.00 0.00 0.00 50 1010.7
20260504045501 58 118 5.0 6.0 0.00 0.00 0.00 51 1010.5
20260504044957 58 99 2.0 7.0 0.00 0.00 0.00 50 1010.6
20260504044455 57 106 3.0 6.0 0.00 0.00 0.00 54 1010.4
20260504043952 59 121 5.0 6.0 0.00 0.00 0.00 49 1010.6
20260504043449 58 122 10.0 10.0 0.00 0.00 0.00 50 1010.6
20260504042946 58 105 6.0 8.0 0.00 0.00 0.00 52 1010.5
20260504042443 58 106 4.0 7.0 0.00 0.00 0.00 51 1010.4
20260504041940 58 126 3.0 7.0 0.00 0.00 0.00 51 1010.5
20260504041436 59 86 5.0 7.0 0.00 0.00 0.00 49 1010.3
20260504040932 60 69 5.0 8.0 0.00 0.00 0.00 49 1010.4
20260504040430 61 82 5.0 8.0 0.00 0.00 0.00 46 1010.4
20260504035925 61 78 3.0 5.0 0.00 0.00 0.00 46 1010.3
20260504035423 60 113 4.0 5.0 0.00 0.00 0.00 48 1010.1
20260504034919 60 111 5.0 7.0 0.00 0.00 0.00 48 1010.0
20260504034417 60 78 3.0 6.0 0.00 0.00 0.00 48 1010.3
20260504033914 60 101 5.0 6.0 0.00 0.00 0.00 49 1010.0
20260504033411 60 112 3.0 6.0 0.00 0.00 0.00 48 1010.0
20260504032903 60 106 4.0 5.0 0.00 0.00 0.00 49 1009.9
20260504032400 62 112 3.0 5.0 0.00 0.00 0.00 47 1009.8
20260504031856 62 122 3.0 4.0 0.00 0.00 0.00 48 1009.8
20260504031353 62 105 3.0 4.0 0.00 0.00 0.00 46 1009.9
20260504030850 62 81 2.0 3.0 0.00 0.00 0.00 47 1009.8
20260504030347 63 106 3.0 4.0 0.00 0.00 0.00 47 1009.7
20260504025843 64 90 2.0 3.0 0.00 0.00 0.00 46 1009.7
20260504025340 64 100 3.0 4.0 0.00 0.00 0.00 44 1009.5
20260504024837 66 90 2.0 3.0 0.00 0.00 0.00 43 1009.6
20260504024333 66 111 3.0 3.0 0.00 0.00 0.00 42 1009.8
20260504023830 67 157 0.0 2.0 0.00 0.00 0.00 41 1009.6
20260504023327 69 111 0.0 2.0 0.00 0.00 0.00 38 1009.5
20260504022823 71 203 0.0 0.0 0.00 0.00 0.00 36 1009.5
20260504022320 72 195 0.0 2.0 0.00 0.00 0.00 35 1009.4
20260504021816 73 254 1.0 3.0 0.00 0.00 0.00 30 1009.3
20260504021314 73 270 2.0 4.0 0.00 0.00 0.00 31 1009.3
20260504020811 73 279 3.0 6.0 0.00 0.00 0.00 31 1009.5
20260504020308 73 305 2.0 6.0 0.00 0.00 0.00 31 1009.5
20260504015803 74 304 2.0 6.0 0.00 0.00 0.00 30 1009.5
20260504015300 74 270 3.0 7.0 0.00 0.00 0.00 30 1009.4
20260504014756 74 273 3.0 4.0 0.00 0.00 0.00 29 1009.3
20260504014252 75 289 3.0 4.0 0.00 0.00 0.00 29 1009.4
20260504013750 75 270 2.0 5.0 0.00 0.00 0.00 29 1009.4
20260504013248 76 308 3.0 4.0 0.00 0.00 0.00 28 1009.5
20260504012743 76 285 5.0 5.0 0.00 0.00 0.00 27 1009.4
20260504012242 76 248 0.0 3.0 0.00 0.00 0.00 28 1009.6
20260504011739 76 242 5.0 5.0 0.00 0.00 0.00 28 1009.4
20260504011235 76 286 5.0 5.0 0.00 0.00 0.00 26 1009.4
20260504010731 76 330 3.0 5.0 0.00 0.00 0.00 28 1009.5
20260504010227 76 310 4.0 5.0 0.00 0.00 0.00 28 1009.6
20260504005724 76 282 3.0 6.0 0.00 0.00 0.00 27 1009.7
20260504005221 77 217 2.0 3.0 0.00 0.00 0.00 26 1009.9
20260504004719 77 287 3.0 4.0 0.00 0.00 0.00 26 1009.7
20260504004215 76 329 4.0 5.0 0.00 0.00 0.00 27 1009.6
20260504003712 77 267 3.0 5.0 0.00 0.00 0.00 27 1009.9
20260504003209 76 90 0.0 3.0 0.00 0.00 0.00 25 1009.9
20260504002706 76 3 3.0 5.0 0.00 0.00 0.00 26 1010.0
20260504002203 77 324 2.0 3.0 0.00 0.00 0.00 25 1010.3